{"data":{"norad_id":55584,"epoch":"2026-09-20T12:20:47.637600Z","epoch_age_seconds":99147,"freshness":"FRESH","line1":"1 55584U 23020R   26263.51444025  .00000106  00000+0  13364-4 0  9995","line2":"2 55584  43.0018 345.3686 0001194 268.4480  91.6235 15.27577608198706","mean_motion":15.27577608,"eccentricity":0.0001194,"inclination_deg":43.0018,"raan_deg":345.3686,"arg_perigee_deg":268.448,"mean_anomaly_deg":91.6235,"bstar":1.3364e-5,"rev_number":19870,"period_min":94.266896323869,"perigee_km":482.23703208245,"apogee_km":483.87548503259,"semimajor_km":6861.1932585575,"source":"CELESTRAK","updated_at":"2026-09-21T09:00:33.266375Z"}}